Location: Unspecified
(0.0000°N, 0.0000°E)
Time: 12:45:17
(UTC+00:00)

Vanguard 2 Rocket - Pass Details

Date: 19 November 2019
Orbit: 556 x 3325 km, 32.9° (Epoch: 12 July)

Event Time Altitude Azimuth Distance (km) Brightness Sun altitude
Rises 20:54:47 0° 241° (WSW) 4,617 11.3 -43.9°
Reaches altitude 10° 20:58:36 10° 244° (WSW) 3,195 10.3 -44.7°
Enters shadow 21:01:39 23° 251° (WSW) 2,053 9.1 -45.4°
